Terminal Aerodrome Forecast
Issued by NWS

Home | Current Version | Previous Version | Text Only | Print | Product List | Glossary On
Versions: 1 2 3 4 5 6 7 8 9 10 11 12
000
FTUS44 KLIX 281100
TAFMCB
TAF
KMCB 281133Z 2812/2912 00000KT P6SM SKC
     FM291100 18005KT P6SM FEW003=

USA.gov is the U.S. government's official web portal to all federal, state and local government web resources and services.